Flag for Moldova Weather past 2 weeks in Bălți, Moldova

Now
57 °F

Cool.


Feels Like: 55 °F
Forecast: 48 / 58 °F
Wind: 8 mph from North

Location: Baltsi-Leadoveni - The North of Moldova

Current Time: Oct 1, 2014 at 7:48:10 AM

Latest Report: Oct 1, 2014 at 7:30 AM


Visibility: N/A

Pressure: 30.24 "Hg

Humidity: 82%

Dew point: 52 °F

Location of BălțiLocation

Historic Weather in Bălți — Graph

°F

Bălți temperature yesterday

Maximum temperature yesterday: 72 °F (at 3:00 PM)
Minimum temperature yesterday: 50 °F (at 7:00 AM)
Average temperature yesterday: 62 °F

Past Weeks' High & Low Weather Summary

 TemperatureHumidityPressure
High75 °F (Sep 22, 2:30 PM)100% (Sep 22, 8:00 AM)30.39 "Hg (Sep 22, 8:00 AM)
Low37 °F (Sep 25, 6:30 AM)22% (Sep 20, 4:00 PM)29.62 "Hg (Sep 22, 4:30 PM)
Average57 °F62%30.08 "Hg
* Reported Sep 16 7:00 AM — Oct 1 7:00 AM, Bălți, Weather by CustomWeather, © 2014

Note: Actual official high and low records may vary slightly from our data, if they occured in-between our weather recording intervals... More about our weather records

Advertising

Bălți weather history for previous 24 hours

 ConditionsComfort  
Time TempWeatherWind HumidityBarometerVisibility
7:00 AM
Oct 1
57 °FCool.8 mph88%30.24 "HgN/A
6:30 AM57 °FCool.7 mph88%30.21 "HgN/A
6:00 AM57 °FCool.8 mph88%30.21 "HgN/A
5:30 AM57 °FCool.7 mph88%30.21 "HgN/A
5:00 AM57 °FCool.7 mph82%30.21 "HgN/A
4:30 AM57 °FCool.8 mph88%30.21 "HgN/A
4:00 AM57 °FCool.8 mph82%30.21 "HgN/A
3:30 AM59 °FCool.7 mph77%30.21 "HgN/A
3:00 AM59 °FCool.8 mph77%30.21 "HgN/A
2:30 AM59 °FCool.9 mph77%30.21 "HgN/A
2:00 AM61 °FCool.8 mph72%30.21 "HgN/A
1:30 AM59 °FCool.8 mph77%30.21 "HgN/A
1:00 AM59 °FCool.8 mph77%30.21 "HgN/A
12:30 AM59 °FCool.10 mph77%30.21 "HgN/A
11:30 PM
Sep 30
59 °FCool.10 mph72%30.21 "HgN/A
11:00 PM61 °FCool.10 mph72%30.21 "HgN/A
10:30 PM61 °FCool.8 mph68%30.21 "HgN/A
10:00 PM61 °FCool.8 mph68%30.21 "HgN/A
9:30 PM61 °FCool.9 mph68%30.21 "HgN/A
9:00 PM63 °FMild.10 mph64%30.21 "HgN/A
8:30 PM63 °FMild.12 mph64%30.21 "HgN/A
8:00 PM64 °FMild.10 mph60%30.18 "HgN/A
7:30 PM66 °FMild.9 mph52%30.18 "HgN/A
7:00 PM64 °FMild.9 mph56%30.18 "HgN/A
6:30 PM66 °FMild.9 mph49%30.18 "HgN/A
6:00 PM70 °FSunny.14 mph43%30.18 "Hg10 mi
5:30 PM72 °FSunny.10 mph41%30.18 "Hg10 mi
5:00 PM72 °FSunny.15 mph41%30.18 "Hg10 mi
4:30 PM72 °FSunny.14 mph41%30.18 "Hg10 mi
4:00 PM72 °FSunny.15 mph41%30.18 "Hg10 mi
3:30 PM72 °FSunny.14 mph41%30.18 "Hg10 mi
3:00 PM72 °FSunny.13 mph44%30.21 "Hg10 mi
2:30 PM70 °FPassing clouds.13 mph46%30.21 "HgN/A
2:00 PM70 °FPassing clouds.14 mph46%30.21 "HgN/A
1:30 PM70 °FPassing clouds.13 mph50%30.21 "HgN/A
1:00 PM70 °FPassing clouds.10 mph50%30.21 "HgN/A
12:30 PM70 °FSunny.10 mph50%30.24 "Hg10 mi
12:00 PM68 °FPassing clouds.13 mph49%30.24 "HgN/A
11:30 AM68 °FPassing clouds.9 mph53%30.24 "HgN/A
11:00 AM66 °FPassing clouds.8 mph52%30.24 "HgN/A
10:30 AM64 °FSunny.7 mph56%30.24 "Hg10 mi
10:00 AM63 °FPassing clouds.7 mph59%30.24 "HgN/A
9:30 AM61 °FSunny.9 mph63%30.24 "Hg10 mi
9:00 AM59 °FSunny.9 mph68%30.24 "Hg10 mi
8:30 AM55 °FSunny.12 mph72%30.24 "Hg10 mi
8:00 AM54 °FCool.12 mph72%30.24 "HgN/A
7:30 AM52 °FCool.8 mph77%30.24 "HgN/A
7:00 AM50 °FCool.9 mph76%30.24 "HgN/A
Weather by CustomWeather, © 2014

See weather overviewHow to use our weather pages